TimeCDT,TemperatureF,Dew PointF,Humidity,Sea Level PressureIn,VisibilityMPH,Wind Direction,Wind SpeedMPH,Gust SpeedMPH,PrecipitationIn,Events,Conditions,WindDirDegrees,DateUTC
12:15 AM,42.8,41.0,93,30.12,8.0,Calm,Calm,-,N/A,,Overcast,0,2013-04-04 05:15:00
12:35 AM,42.8,39.2,87,30.11,9.0,East,4.6,-,N/A,,Overcast,80,2013-04-04 05:35:00
12:55 AM,42.8,39.2,87,30.10,9.0,East,4.6,-,N/A,,Overcast,80,2013-04-04 05:55:00
1:15 AM,42.8,39.2,87,30.10,10.0,Calm,Calm,-,N/A,,Overcast,0,2013-04-04 06:15:00
1:35 AM,42.8,39.2,87,30.09,9.0,Calm,Calm,-,N/A,,Overcast,0,2013-04-04 06:35:00
1:55 AM,42.8,39.2,87,30.08,10.0,Calm,Calm,-,N/A,,Overcast,0,2013-04-04 06:55:00
2:15 AM,42.8,39.2,87,30.07,10.0,NE,3.5,-,N/A,,Overcast,40,2013-04-04 07:15:00
2:35 AM,44.6,39.2,81,30.05,9.0,NE,4.6,-,N/A,,Overcast,50,2013-04-04 07:35:00
2:55 AM,44.6,37.4,76,30.05,10.0,ENE,8.1,-,N/A,,Overcast,70,2013-04-04 07:55:00
3:15 AM,44.6,37.4,76,30.04,8.0,East,8.1,17.3,N/A,,Overcast,90,2013-04-04 08:15:00
3:35 AM,41.0,37.4,87,30.04,2.0,ENE,8.1,-,N/A,Rain,Light Rain,70,2013-04-04 08:35:00
3:55 AM,41.0,39.2,93,30.04,2.5,ENE,5.8,-,0.01,Rain,Light Rain,70,2013-04-04 08:55:00
4:15 AM,41.0,39.2,93,30.04,3.0,NE,5.8,-,N/A,Rain,Light Rain,50,2013-04-04 09:15:00
4:35 AM,41.0,39.2,93,30.03,5.0,ENE,5.8,-,N/A,,Overcast,60,2013-04-04 09:35:00
4:55 AM,41.0,39.2,93,30.03,5.0,ENE,6.9,-,N/A,,Overcast,60,2013-04-04 09:55:00
5:15 AM,41.0,39.2,93,30.02,5.0,NE,5.8,-,N/A,,Overcast,50,2013-04-04 10:15:00
5:35 AM,41.0,39.2,93,30.02,5.0,ENE,6.9,-,N/A,,Overcast,60,2013-04-04 10:35:00
5:55 AM,41.0,39.2,93,30.02,5.0,NE,6.9,-,N/A,,Overcast,40,2013-04-04 10:55:00
6:15 AM,41.0,39.2,93,30.02,5.0,ENE,6.9,-,N/A,,Overcast,70,2013-04-04 11:15:00
6:35 AM,41.0,41.0,100,30.02,3.0,ENE,6.9,-,N/A,,Overcast,70,2013-04-04 11:35:00
6:55 AM,41.0,41.0,100,30.04,2.5,ENE,4.6,-,N/A,,Overcast,60,2013-04-04 11:55:00
7:15 AM,41.0,41.0,100,30.04,1.8,ENE,4.6,-,N/A,,Overcast,60,2013-04-04 12:15:00
7:35 AM,41.0,41.0,100,30.04,1.8,NE,4.6,-,N/A,,Overcast,50,2013-04-04 12:35:00
7:55 AM,41.0,41.0,100,30.04,1.8,NE,6.9,-,N/A,,Overcast,40,2013-04-04 12:55:00
8:15 AM,41.0,41.0,100,30.04,2.0,ENE,6.9,-,N/A,,Overcast,60,2013-04-04 13:15:00
8:35 AM,41.0,41.0,100,30.04,2.0,ENE,8.1,-,N/A,,Overcast,60,2013-04-04 13:35:00
8:55 AM,41.0,41.0,100,30.03,2.5,ENE,6.9,-,N/A,,Overcast,60,2013-04-04 13:55:00
9:35 AM,42.8,41.0,93,30.03,4.0,ENE,6.9,-,N/A,,Overcast,60,2013-04-04 14:35:00
9:55 AM,42.8,41.0,93,30.03,2.0,East,4.6,-,N/A,,Overcast,80,2013-04-04 14:55:00
10:15 AM,42.8,41.0,93,30.04,1.0,ENE,6.9,-,N/A,,Overcast,70,2013-04-04 15:15:00
10:55 AM,44.6,42.8,93,30.04,1.5,NNE,3.5,-,N/A,,Overcast,30,2013-04-04 15:55:00
11:35 AM,44.6,42.8,93,30.04,3.0,NE,5.8,-,N/A,,Overcast,50,2013-04-04 16:35:00
11:55 AM,44.6,42.8,93,30.04,2.0,ENE,3.5,-,N/A,Rain,Light Rain,60,2013-04-04 16:55:00
12:15 PM,44.6,44.6,100,30.03,1.2,NNE,4.6,-,N/A,Rain,Light Rain,30,2013-04-04 17:15:00
12:35 PM,44.6,44.6,100,30.02,1.2,ENE,5.8,-,N/A,,Overcast,70,2013-04-04 17:35:00
12:55 PM,44.6,44.6,100,30.02,1.5,NE,5.8,-,N/A,Rain,Light Rain,40,2013-04-04 17:55:00
1:15 PM,44.6,44.6,100,30.01,2.0,NE,4.6,-,N/A,Rain,Light Rain,50,2013-04-04 18:15:00
1:35 PM,46.4,44.6,93,30.01,2.0,NE,4.6,-,N/A,,Overcast,40,2013-04-04 18:35:00
1:55 PM,46.4,44.6,93,30.00,3.0,NE,4.6,-,N/A,,Overcast,50,2013-04-04 18:55:00
2:15 PM,46.4,44.6,93,30.00,3.0,NNE,3.5,-,N/A,,Overcast,20,2013-04-04 19:15:00
2:35 PM,46.4,44.6,93,29.99,2.5,ENE,5.8,-,N/A,,Overcast,60,2013-04-04 19:35:00
2:55 PM,46.4,44.6,93,29.99,1.0,NE,3.5,-,0.01,Rain,Light Rain,40,2013-04-04 19:55:00
3:15 PM,46.4,46.4,100,29.98,0.8,North,3.5,-,0.02,Rain,Light Rain,10,2013-04-04 20:15:00
3:35 PM,46.4,46.4,100,29.97,1.8,NE,3.5,-,0.03,Rain,Light Rain,40,2013-04-04 20:35:00
3:55 PM,46.4,46.4,100,29.97,2.5,NNE,3.5,-,0.03,Rain,Light Rain,30,2013-04-04 20:55:00
4:15 PM,46.4,46.4,100,29.96,2.0,NNE,5.8,-,N/A,Rain,Light Rain,20,2013-04-04 21:15:00
4:35 PM,46.4,46.4,100,29.97,3.0,North,3.5,-,N/A,,Overcast,10,2013-04-04 21:35:00
4:55 PM,48.2,46.4,93,29.97,1.2,North,3.5,-,0.01,Rain,Light Rain,10,2013-04-04 21:55:00
5:15 PM,46.4,46.4,100,29.97,2.5,North,3.5,-,N/A,Rain,Light Rain,10,2013-04-04 22:15:00
5:35 PM,46.4,46.4,100,29.97,4.0,North,4.6,-,N/A,,Overcast,10,2013-04-04 22:35:00
5:55 PM,46.4,46.4,100,29.98,5.0,North,3.5,-,N/A,,Overcast,360,2013-04-04 22:55:00
6:15 PM,46.4,46.4,100,29.98,2.0,North,3.5,-,N/A,Rain,Light Rain,360,2013-04-04 23:15:00
6:35 PM,46.4,46.4,100,29.99,1.2,North,3.5,-,N/A,Rain,Light Rain,360,2013-04-04 23:35:00
6:55 PM,46.4,46.4,100,29.99,1.2,North,3.5,-,N/A,Rain,Light Rain,350,2013-04-04 23:55:00
7:15 PM,46.4,46.4,100,29.99,0.8,North,4.6,-,N/A,Rain,Light Rain,360,2013-04-05 00:15:00
7:35 PM,46.4,46.4,100,29.99,1.5,North,3.5,-,N/A,Rain,Light Rain,360,2013-04-05 00:35:00
7:55 PM,46.4,46.4,100,30.00,1.5,North,4.6,-,0.01,Rain,Light Rain,10,2013-04-05 00:55:00
8:15 PM,46.4,46.4,100,30.00,1.5,North,3.5,-,0.02,Rain,Light Rain,10,2013-04-05 01:15:00
8:35 PM,46.4,46.4,100,30.01,2.5,NNE,3.5,-,0.05,Rain,Light Rain,30,2013-04-05 01:35:00
8:55 PM,46.4,46.4,100,30.02,3.0,NNE,4.6,-,0.07,Rain,Light Rain,30,2013-04-05 01:55:00
9:15 PM,46.4,44.6,93,30.02,4.0,NNE,4.6,-,N/A,Rain,Light Rain,20,2013-04-05 02:15:00
9:35 PM,46.4,44.6,93,30.03,3.0,North,5.8,-,N/A,Rain,Light Rain,10,2013-04-05 02:35:00
9:55 PM,46.4,44.6,93,30.03,5.0,NNE,3.5,-,N/A,,Overcast,20,2013-04-05 02:55:00
10:15 PM,46.4,44.6,93,30.04,9.0,NNE,5.8,-,N/A,,Mostly Cloudy,30,2013-04-05 03:15:00
10:35 PM,46.4,44.6,93,30.04,9.0,NNE,4.6,-,N/A,,Overcast,30,2013-04-05 03:35:00
10:55 PM,44.6,44.6,100,30.04,9.0,NNE,3.5,-,N/A,,Overcast,20,2013-04-05 03:55:00
11:15 PM,44.6,44.6,100,30.04,10.0,NNE,4.6,-,N/A,,Overcast,20,2013-04-05 04:15:00
11:35 PM,44.6,44.6,100,30.05,8.0,North,3.5,-,N/A,,Overcast,10,2013-04-05 04:35:00
11:55 PM,44.6,44.6,100,30.05,7.0,North,3.5,-,N/A,,Overcast,10,2013-04-05 04:55:00